Starlink 31566

operational
NORAD ID: 59475 Int'l Des: 2024-068 Owner: SPXS Country: US Constellation: starlink
LEOCIRCULAR

About Starlink 31566

Description loading...

Live Position

Loading 3D Globe...

Upcoming Passes

Altitude History

Altitude vs Time

uPlot chart will show altitude changes over time

Two-Line Element Set

1 59475U 24068W 25349.79528884 .00000222 00000-0 17605-4 0 9993
2 59475 42.9997 148.1742 0001188 267.4569 92.6147 15.27577999 95695
Epoch: Dec 15, 2025 • Age: 16 hours

Current Status

Altitude 486.2 km
Velocity 7.62 km/s
Sub-Earth Point -17.04°S, 119.94°W
Launch Date Apr 10, 2024
Age 1.6 years
Type internet

Technical Details

Classification Payload
Mass 730.00 kg
Dry Mass 700.00 kg
Total Mass 730.00 kg
Length 0.30 m
Diameter 4.10 m
Span 29.00 m
Shape Box + pan
Manufacturer SPXS
Bus Type Starlink V2M
Phase Status In Orbit
Owner/State SPXS/US

Large Constellations

Loading constellations...